FW5669 Weather Reports


Display with metric or nautical units.
time (UTC)temp
F
wind
direction
speed
MPH
gust
MPH
rain 1hr
in
rain 24hr
in
rain mn
in
humidity
%
barometer
mb
20260505213100 58 172 0.0 2.0 0.00 1.42 0.03 81 1018.1
20260505213002 58 178 1.0 2.0 0.00 1.42 0.03 82 1018.2
20260505211600 57 202 0.0 2.0 0.00 1.42 0.03 82 1018.1
20260505210100 57 273 0.0 2.0 0.00 1.42 0.03 82 1018.0
20260505204611 56 273 0.0 2.0 0.00 1.46 0.03 83 1017.9
20260505203108 56 233 0.0 2.0 0.00 1.46 0.03 84 1017.8
20260505201600 56 156 0.0 3.0 0.00 1.46 0.03 84 1018.1
20260505200100 56 229 0.0 2.0 0.00 1.46 0.03 84 1018.1
20260505200002 56 233 0.0 2.0 0.00 1.46 0.03 84 1018.1
20260505194501 56 196 0.0 2.0 0.00 1.47 0.03 84 1018.0
20260505193100 56 189 1.0 3.0 0.00 1.47 0.03 83 1018.1
20260505193001 56 195 1.0 3.0 0.00 1.47 0.03 82 1018.1
20260505191601 57 170 0.0 3.0 0.00 1.47 0.03 82 1018.0
20260505190002 57 179 2.0 3.0 0.00 1.47 0.03 82 1017.9
20260505184600 56 227 0.0 2.0 0.00 1.47 0.03 84 1017.9
20260505183108 56 189 0.0 2.0 0.00 1.47 0.03 84 1017.9
20260505181615 56 251 1.0 2.0 0.00 1.47 0.03 81 1017.8
20260505180100 55 288 0.0 2.0 0.00 1.47 0.03 83 1017.7
20260505180002 55 289 0.0 2.0 0.00 1.47 0.03 84 1017.7
20260505174502 55 236 0.0 2.0 0.00 1.47 0.03 83 1017.6
20260505173002 54 177 0.0 3.0 0.00 1.47 0.03 86 1017.5
20260505171502 53 185 0.0 2.0 0.00 1.47 0.03 90 1017.6
20260505170001 52 278 1.0 2.0 0.00 1.47 0.03 92 1017.6
20260505164604 52 133 0.0 1.0 0.00 1.47 0.03 94 1017.6
20260505163059 51 55 0.0 2.0 0.00 1.47 0.03 94 1017.7
20260505161604 51 60 0.0 2.0 0.00 1.47 0.03 94 1017.4
20260505153115 49 27 0.0 1.0 0.00 1.47 0.03 95 1017.4
20260505151600 49 85 0.0 2.0 0.00 1.47 0.03 95 1017.3
20260505151500 49 77 0.0 2.0 0.00 1.47 0.03 95 1017.2
20260505140107 49 33 0.0 1.0 0.00 1.47 0.03 96 1016.6
20260505124612 49 40 0.0 1.0 0.00 1.47 0.03 96 1016.2
20260505124501 49 40 0.0 1.0 0.00 1.47 0.03 96 1016.2
20260505123102 49 48 0.0 2.0 0.00 1.47 0.03 96 1016.1
20260505121600 49 75 0.0 1.0 0.00 1.47 0.03 96 1016.2
20260505120108 49 58 0.0 2.0 0.00 1.47 0.03 96 1016.0
20260505114559 49 62 0.0 1.0 0.00 1.47 0.03 96 1016.1
20260505113115 49 68 1.0 2.0 0.00 1.47 0.03 96 1016.3
20260505111559 49 64 0.0 2.0 0.00 1.47 0.03 96 1016.4
20260505101559 49 29 1.0 4.0 0.00 1.47 0.03 96 1016.5
20260505094600 49 24 1.0 3.0 0.00 1.47 0.03 95 1016.5
20260505093107 49 63 1.0 3.0 0.00 1.47 0.03 95 1016.6
20260505091559 49 58 1.0 3.0 0.00 1.47 0.03 96 1016.7
20260505090101 49 51 0.0 2.0 0.00 1.47 0.03 96 1016.9
20260505084559 49 55 1.0 3.0 0.00 1.47 0.03 96 1017.1
20260505083104 49 75 1.0 5.0 0.00 1.47 0.03 96 1017.3
20260505081559 49 68 0.0 2.0 0.00 1.47 0.03 96 1017.3
20260505080113 49 62 0.0 3.0 0.02 1.47 0.03 96 1017.2
20260505080002 49 62 0.0 3.0 0.02 1.47 0.03 96 1017.2
20260505074504 49 51 0.0 1.0 0.03 1.47 0.03 96 1017.1
20260505073002 49 46 0.0 1.0 0.05 1.47 0.03 96 1017.2
20260505071501 49 46 0.0 1.0 0.06 1.47 0.03 95 1017.2
20260505070005 49 54 0.0 2.0 0.03 1.44 0.00 95 1017.2
20260505064501 49 64 0.0 1.0 0.05 1.44 1.44 95 1017.2
20260505063002 49 69 0.0 1.0 0.06 1.42 1.42 95 1017.1
20260505061502 49 68 0.0 1.0 0.08 1.41 1.41 95 1017.4
20260505060004 49 97 0.0 1.0 0.10 1.41 1.41 95 1017.6
20260505054501 49 97 0.0 0.0 0.12 1.39 1.39 95 1017.3
20260505053001 49 97 0.0 0.0 0.13 1.36 1.36 95 1017.3
20260505051600 49 97 0.0 1.0 0.12 1.33 1.33 95 1017.3
20260505041503 49 39 0.0 2.0 0.33 1.21 1.21 95 1017.7
20260505034618 49 74 0.0 0.0 0.31 1.03 1.03 95 1017.4
20260505033107 49 81 0.0 0.0 0.26 0.93 0.93 95 1017.7
20260505031600 49 81 0.0 0.0 0.27 0.88 0.88 94 1017.6
20260505024600 49 29 1.0 3.0 0.16 0.72 0.72 94 1018.0
20260505023103 49 35 0.0 3.0 0.14 0.67 0.67 94 1017.4
20260505021600 49 39 1.0 3.0 0.09 0.61 0.61 94 1017.1
20260505021502 49 59 0.0 3.0 0.09 0.61 0.61 94 1017.1
20260505020002 50 66 1.0 4.0 0.10 0.59 0.59 94 1016.2
20260505014601 50 52 1.0 4.0 0.08 0.56 0.56 94 1016.2
20260505013001 50 48 0.0 3.0 0.10 0.53 0.53 94 1016.8
20260505011612 50 50 1.0 4.0 0.13 0.52 0.52 94 1016.8
20260505010008 50 104 0.0 2.0 0.12 0.49 0.49 93 1016.6
20260505004501 50 352 1.0 3.0 0.11 0.47 0.47 94 1016.6
20260505003101 50 75 0.0 3.0 0.08 0.43 0.43 94 1016.9
20260505001502 50 56 1.0 2.0 0.06 0.39 0.39 94 1017.3
20260505000110 51 58 0.0 4.0 0.10 0.37 0.37 93 1016.8
20260505000002 51 89 0.0 4.0 0.10 0.37 0.37 93 1016.7
20260504234501 51 46 1.0 6.0 0.10 0.36 0.36 94 1017.2
20260504233113 50 35 0.0 3.0 0.13 0.35 0.35 93 1017.0
20260504233002 50 66 0.0 3.0 0.14 0.35 0.35 93 1016.9
20260504231501 50 196 0.0 2.0 0.14 0.32 0.32 93 1016.5
20260504230002 50 44 1.0 4.0 0.12 0.27 0.27 92 1017.7
20260504224600 51 79 0.0 1.0 0.12 0.26 0.26 93 1017.0
20260504223100 51 133 0.0 0.0 0.11 0.22 0.22 92 1017.1
20260504221559 51 115 0.0 1.0 0.11 0.18 0.18 92 1017.4
20260504214608 51 125 0.0 2.0 0.10 0.14 0.14 91 1017.3